When you browse on this site, cookies collect data to enhance your experience and personalize the content and advertising you see.
Visit our Privacy Policy to learn more. By continuing to use the site, you agree to this use of cookies and data.
  • In France
  • List of Countries
  • For 7 days
  • Water Temperature
  • Weather Map
  • Weather Widgets
  • user-avatar
    Login

    Hourly Weather Kipungo

    Today, 27 May, Wednesday

    Time Temperature Precipitation Wind Pressure Humidity
    00:00 +14°C° 0 mm 1 mps 653 mmHg 29%
    01:00 +14°C° 0 mm 1 mps 653 mmHg 30%
    02:00 +13°C° 0 mm 1 mps 653 mmHg 33%
    03:00 +13°C° 0 mm 1 mps 652 mmHg 36%
    04:00 +12°C° 0 mm 1 mps 652 mmHg 38%
    05:00 +13°C° 0 mm 1 mps 653 mmHg 39%
    06:00 +13°C° 0 mm 1 mps 653 mmHg 40%
    07:00 +13°C° 0 mm 1 mps 654 mmHg 42%
    08:00 +18°C° 0 mm 1 mps 655 mmHg 35%
    09:00 +22°C° 0 mm 1 mps 656 mmHg 28%
    10:00 +27°C° 0 mm 1 mps 657 mmHg 22%
    11:00 +28°C° 0 mm 2 mps 656 mmHg 21%
    12:00 +29°C° 0 mm 2 mps 656 mmHg 20%
    13:00 +31°C° 0 mm 2 mps 656 mmHg 19%
    14:00 +31°C° 0 mm 2 mps 655 mmHg 19%
    15:00 +31°C° 0 mm 1 mps 655 mmHg 19%
    16:00 +30°C° 0 mm 1 mps 655 mmHg 19%
    17:00 +27°C° 0 mm 1 mps 654 mmHg 24%
    18:00 +24°C° 0 mm 1 mps 654 mmHg 30%
    19:00 +21°C° 0 mm 1 mps 654 mmHg 35%
    20:00 +20°C° 0 mm 1 mps 654 mmHg 37%
    21:00 +19°C° 0 mm 1 mps 654 mmHg 38%
    22:00 +17°C° 0 mm 2 mps 654 mmHg 40%
    23:00 +16°C° 0 mm 1 mps 654 mmHg 43%

    Tomorrow, 28 May, Thursday

    Time Temperature Precipitation Wind Pressure Humidity
    00:00 +15°C° 0 mm 1 mps 654 mmHg 45%
    01:00 +14°C° 0 mm 1 mps 653 mmHg 48%
    02:00 +14°C° 0 mm 1 mps 653 mmHg 49%
    03:00 +13°C° 0 mm 1 mps 653 mmHg 51%
    04:00 +13°C° 0 mm 1 mps 653 mmHg 52%
    05:00 +12°C° 0 mm 0 mps 653 mmHg 52%
    06:00 +13°C° 0 mm 0 mps 654 mmHg 52%
    07:00 +13°C° 0 mm 0 mps 654 mmHg 53%
    08:00 +19°C° 0 mm 1 mps 655 mmHg 45%
    09:00 +23°C° 0 mm 1 mps 656 mmHg 37%
    10:00 +27°C° 0 mm 2 mps 657 mmHg 29%
    11:00 +28°C° 0 mm 2 mps 657 mmHg 26%
    12:00 +30°C° 0 mm 2 mps 657 mmHg 24%
    13:00 +32°C° 0 mm 2 mps 657 mmHg 22%
    14:00 +31°C° 0 mm 1 mps 656 mmHg 22%
    15:00 +31°C° 0 mm 1 mps 656 mmHg 22%
    16:00 +30°C° 0 mm 1 mps 655 mmHg 23%
    17:00 +27°C° 0 mm 1 mps 655 mmHg 28%
    18:00 +24°C° 0 mm 1 mps 654 mmHg 34%
    19:00 +21°C° 0 mm 1 mps 654 mmHg 40%
    20:00 +21°C° 0 mm 1 mps 654 mmHg 42%
    21:00 +20°C° 0 mm 1 mps 654 mmHg 44%
    22:00 +18°C° 0 mm 2 mps 654 mmHg 46%
    23:00 +18°C° 0 mm 1 mps 654 mmHg 48%

    Day after tomorrow, 29 May, Friday

    Time Temperature Precipitation Wind Pressure Humidity
    00:00 +16°C° 0 mm 1 mps 654 mmHg 49%
    01:00 +15°C° 0 mm 1 mps 653 mmHg 51%
    02:00 +15°C° 0 mm 1 mps 653 mmHg 51%
    03:00 +15°C° 0 mm 1 mps 653 mmHg 51%
    04:00 +14°C° 0 mm 1 mps 653 mmHg 51%
    05:00 +14°C° 0 mm 1 mps 653 mmHg 52%
    06:00 +13°C° 0 mm 0 mps 654 mmHg 53%
    07:00 +14°C° 0 mm 0 mps 654 mmHg 53%
    08:00 +19°C° 0 mm 1 mps 655 mmHg 46%
    09:00 +23°C° 0 mm 2 mps 656 mmHg 38%
    10:00 +27°C° 0 mm 2 mps 657 mmHg 30%
    11:00 +28°C° 0 mm 2 mps 657 mmHg 27%
    12:00 +30°C° 0 mm 3 mps 656 mmHg 24%
    13:00 +31°C° 0 mm 3 mps 656 mmHg 22%
    14:00 +31°C° 0 mm 2 mps 655 mmHg 21%
    15:00 +31°C° 0 mm 2 mps 655 mmHg 21%
    16:00 +31°C° 0 mm 2 mps 654 mmHg 21%
    17:00 +27°C° 0 mm 1 mps 654 mmHg 26%
    18:00 +24°C° 0 mm 1 mps 654 mmHg 32%
    19:00 +19°C° 0 mm 0 mps 653 mmHg 37%
    20:00 +18°C° 0 mm 0 mps 653 mmHg 39%
    21:00 +20°C° 0 mm 1 mps 654 mmHg 40%
    22:00 +19°C° 0 mm 1 mps 654 mmHg 41%
    23:00 +18°C° 0 mm 1 mps 654 mmHg 44%

    30 May, Saturday

    Time Temperature Precipitation Wind Pressure Humidity
    00:00 +16°C° 0 mm 1 mps 653 mmHg 47%
    01:00 +15°C° 0 mm 1 mps 653 mmHg 50%
    02:00 +14°C° 0 mm 0 mps 653 mmHg 52%
    03:00 +13°C° 0 mm 0 mps 652 mmHg 54%
    04:00 +12°C° 0 mm 0 mps 652 mmHg 57%
    05:00 +12°C° 0 mm 0 mps 653 mmHg 57%
    06:00 +13°C° 0 mm 0 mps 653 mmHg 56%
    07:00 +13°C° 0 mm 0 mps 654 mmHg 56%
    08:00 +19°C° 0 mm 1 mps 655 mmHg 47%
    09:00 +23°C° 0 mm 2 mps 656 mmHg 37%
    10:00 +27°C° 0 mm 2 mps 657 mmHg 27%
    11:00 +28°C° 0 mm 2 mps 656 mmHg 24%
    12:00 +30°C° 0 mm 2 mps 656 mmHg 21%
    13:00 +31°C° 0 mm 3 mps 656 mmHg 18%
    14:00 +31°C° 0 mm 2 mps 656 mmHg 18%
    15:00 +31°C° 0 mm 2 mps 655 mmHg 18%
    16:00 +31°C° 0 mm 2 mps 655 mmHg 18%
    17:00 +28°C° 0 mm 1 mps 655 mmHg 22%
    18:00 +24°C° 0 mm 1 mps 654 mmHg 27%
    19:00 +21°C° 0 mm 1 mps 654 mmHg 32%
    20:00 +20°C° 0 mm 1 mps 654 mmHg 33%
    21:00 +19°C° 0 mm 1 mps 654 mmHg 34%
    22:00 +18°C° 0 mm 1 mps 654 mmHg 36%
    23:00 +16°C° 0 mm 1 mps 654 mmHg 38%

    31 May, Sunday

    Time Temperature Precipitation Wind Pressure Humidity
    00:00 +15°C° 0 mm 1 mps 654 mmHg 40%
    01:00 +14°C° 0 mm 1 mps 653 mmHg 43%
    02:00 +13°C° 0 mm 1 mps 653 mmHg 44%
    03:00 +13°C° 0 mm 1 mps 653 mmHg 45%
    04:00 +12°C° 0 mm 1 mps 653 mmHg 47%
    05:00 +12°C° 0 mm 1 mps 653 mmHg 48%
    06:00 +11°C° 0 mm 0 mps 653 mmHg 49%
    07:00 +12°C° 0 mm 0 mps 654 mmHg 50%
    08:00 +18°C° 0 mm 1 mps 655 mmHg 41%
    09:00 +21°C° 0 mm 2 mps 656 mmHg 33%
    10:00 +26°C° 0 mm 3 mps 657 mmHg 24%
    11:00 +28°C° 0 mm 3 mps 657 mmHg 22%
    12:00 +30°C° 0 mm 3 mps 656 mmHg 19%
    13:00 +31°C° 0 mm 3 mps 656 mmHg 16%
    14:00 +31°C° 0 mm 3 mps 656 mmHg 16%
    15:00 +31°C° 0 mm 2 mps 656 mmHg 16%
    16:00 +31°C° 0 mm 2 mps 655 mmHg 16%
    17:00 +28°C° 0 mm 2 mps 655 mmHg 22%
    18:00 +24°C° 0 mm 2 mps 655 mmHg 27%
    19:00 +21°C° 0 mm 1 mps 655 mmHg 32%
    20:00 +20°C° 0 mm 1 mps 655 mmHg 34%
    21:00 +19°C° 0 mm 1 mps 655 mmHg 37%
    22:00 +18°C° 0 mm 1 mps 655 mmHg 39%
    23:00 +16°C° 0 mm 1 mps 655 mmHg 43%

    1 June, Monday

    Time Temperature Precipitation Wind Pressure Humidity
    00:00 +14°C° 0 mm 0 mps 654 mmHg 46%
    01:00 +13°C° 0 mm 0 mps 654 mmHg 50%
    02:00 +13°C° 0 mm 0 mps 654 mmHg 52%
    03:00 +12°C° 0 mm 0 mps 654 mmHg 54%
    04:00 +12°C° 0 mm 0 mps 653 mmHg 57%
    05:00 +12°C° 0 mm 0 mps 654 mmHg 57%
    06:00 +12°C° 0 mm 0 mps 654 mmHg 58%
    07:00 +13°C° 0 mm 0 mps 655 mmHg 58%
    08:00 +19°C° 0 mm 1 mps 655 mmHg 49%
    09:00 +21°C° 0 mm 2 mps 656 mmHg 41%
    10:00 +26°C° 0 mm 3 mps 657 mmHg 32%
    11:00 +28°C° 0 mm 3 mps 657 mmHg 29%
    12:00 +29°C° 0 mm 3 mps 656 mmHg 26%
    13:00 +31°C° 0 mm 2 mps 656 mmHg 23%
    14:00 +31°C° 0 mm 2 mps 656 mmHg 22%
    15:00 +31°C° 0 mm 2 mps 655 mmHg 22%
    16:00 +31°C° 0 mm 2 mps 655 mmHg 21%
    17:00 +28°C° 0 mm 2 mps 655 mmHg 27%
    18:00 +25°C° 0 mm 2 mps 654 mmHg 32%
    19:00 +21°C° 0 mm 1 mps 654 mmHg 38%
    20:00 +20°C° 0 mm 1 mps 654 mmHg 40%
    21:00 +19°C° 0 mm 1 mps 654 mmHg 43%
    22:00 +19°C° 0 mm 1 mps 654 mmHg 45%
    23:00 +18°C° 0 mm 1 mps 654 mmHg 50%
    Show more